Weather in Kopylovo

Russia / Tomsk District     56°36′10″N   85°06′19″E
temp.,
°C
wind,
m/s
gust,
m/s
humid.,
%
clouds,
%
prec.,
mm/h
press.,
hPa
HPBL,
m
10 may, mon
mon1001:00+5nne28745 0.0 1023251
04:00+2ne26925 0.0 1024129
07:00+4nne26835 0.0 1025230
10:00+10ne456020 0.0 10251213
13:00+10ene455496 0.1 10241413
16:00+11ne455089 0.0 10241549
19:00+12ne354911 0.0 10231344
22:00+7nne247110 0.0 102260
11 may, tue
tue1101:00+5nne398171 0.0 1021175
04:00+5ne268841 0.0 1020112
07:00+7ne3107614 0.0 1020300
10:00+14ne575113 0.0 1020952
13:00+16ne574263 0.4 10192242
16:00+16nne554399 0.1 10191918
19:00+14ne565620 0.2 10201103
22:00+9nne3107757 0.3 1021323
12 may, wed
wed1201:00+7n298620 0.4 1021217
04:00+5nne39877 0.0 1021205
07:00+7n26775 0.0 1021182
10:00+14nne34495 0.0 1021701
13:00+17n333820 0.0 10202022
16:00+18nnw223398 0.0 10182467
19:00+17nw233894 0.0 1018191
22:00+13n115063 0.0 101811
13 may, thu
thu1301:00+11ene115748 0.0 101810
04:00+9se116413 0.0 101710
07:00+11w116183 0.0 101861
10:00+16ssw233935 0.0 1017794
13:00+19wsw332987 0.0 10162785
16:00+20sw342797 0.0 10152777
19:00+17nw444736 0.0 10151188
22:00+13nw3866100 0.0 1016449
14 may, fri
fri1401:00+10w2576100 0.0 1015167
04:00+10w2674100 0.1 1013195
07:00+8wnw3876100 0.1 10141106
10:00+9nw5107892 0.2 10141036
13:00+11nnw7114569 0.4 10152100
16:00+12nnw7102917 0.0 10172304
19:00+11nw59315 0.0 10192273
22:00+6wnw26455 0.0 1020109